Location: Bastelaar
(51.0950°N, 3.8602°E)
Time: 07:04:24
(UTC+00:00)

Tsikada Rocket - Pass Details

Date: 18 November 2025
Orbit: 957 x 1008 km, 82.9° (Epoch: 16 December)

Event Time Altitude Azimuth Distance (km) Brightness Sun altitude
Rises 16:25:42 0° 350° (N) 3,752 6.9 -5.4°
Reaches altitude 10° 16:28:16 10° 353° (N) 2,796 6.2 -5.8°
Maximum altitude 16:34:42 74° 78° (ENE) 1,045 4.1 -6.7°
Drops below altitude 10° 16:41:02 10° 164° (SSE) 2,754 6.4 -7.7°
Sets 16:43:33 0° 166° (SSE) 3,691 7.1 -8.0°
